Weather in Lopatino

Russia / Kaluga Oblast     54°44′15″N   37°00′22″E
temp.,
°C
wind,
m/s
gust,
m/s
humid.,
%
clouds,
%
prec.,
mm/h
press.,
hPa
HPBL,
m
9 december, thu
thu900:00−8nne41095100 0.9 1021310
03:00−8nne51195100 2.6 1021329
06:00−8nne4119597 0.7 1021370
09:00−8ne4119497 0.9 1023368
12:00−8ne499482 0.1 1024293
15:00−8nne499216 0.1 1025294
18:00−11ne38935 0.0 1027161
21:00−14ne39945 0.0 1029159
10 december, fri
fri1000:00−16ne269843 0.0 103094
03:00−17ene269956 0.0 103186
06:00−18ene389857 0.0 1031121
09:00−17e3109746 0.0 1032156
12:00−11e410885 0.0 1032226
15:00−10e410875 0.0 1032232
18:00−12e411905 0.0 1032198
21:00−13e410935 0.0 1033170
11 december, sat
sat1100:00−12ese311937 0.0 1033184
03:00−13e399433 0.0 1033146
06:00−13e4119437 0.0 1033173
09:00−13e399322 0.0 1033152
12:00−8e411875 0.0 1033246
15:00−8e410875 0.0 1032237
18:00−10ese4118980 0.0 1033205
21:00−9ese4118984 0.0 1033216
12 december, sun
sun1200:00−8ese31189100 0.0 1033230
03:00−8se379215 0.0 1034133
06:00−8se26939 0.0 1034104
09:00−9se269537 0.0 103586
12:00−4se398998 0.0 1034254
15:00−4se379095 0.0 1034174
18:00−7se279298 0.0 1034110
21:00−8se2791100 0.0 1034112
13 december, mon
mon1300:00−7se3889100 0.0 1033140
03:00−7se3789100 0.0 1033131
06:00−5se3987100 0.0 1031188
09:00−5se31085100 0.0 1031254
12:00−3se31082100 0.0 1030334
15:00−3se3884100 0.0 1030258
18:00−5se3888100 0.0 1030175
21:00−4se3985100 0.0 1029229